Location: Hylvaty SDH
(49.9612°N, 16.4057°E)
Time: 12:06:33
(UTC+01:00)

A-11 Canister half - Pass Details

Date: 04 October 2020
Orbit: 1526 x 1683 km, 47.3° (Epoch: 28 October)

Event Time Altitude Azimuth Distance (km) Brightness Sun altitude
Rises 01:17:15 0° 270° (W) 4,681 - -43.9°
Reaches altitude 10° 01:20:16 10° 269° (W) 3,706 - -43.8°
Maximum altitude 01:29:36 76° 186° (S) 1,600 - -43.4°
Exits shadow 01:37:48 16° 104° (ESE) 3,362 10.8 -43.0°
Drops below altitude 10° 01:39:12 10° 103° (ESE) 3,804 11.1 -43.0°
Sets 01:42:20 0° 102° (ESE) 4,810 11.7 -42.8°
